Hillsdale, MI

7:31 AM EST on November 15, 2019 (GMT -0500)
Hillsdale Municipal

Weather History for KJYM - August, 2019

Change the Weather History Date:

Saturday, August 24, 2019

  Actual Average Record
Temperature  
Mean Temperature 58 °F -  
Max Temperature 71 °F 79 °F 95 °F (1948)
Min Temperature 46 °F 55 °F 36 °F (1984)
Degree Days  
Heating Degree Days 6    
Growing Degree Days 8 (Base 50)    
Moisture  
Dew Point 50 °F    
Average Humidity 72    
Maximum Humidity 95    
Minimum Humidity 47    
Precipitation  
Precipitation 0.00 in - - ()
Sea Level Pressure  
Sea Level Pressure 30.27 in    
Wind  
Wind Speed 5 mph ()    
Max Wind Speed 13 mph    
Max Gust Speed 18 mph    
Visibility 10.0 miles    
Events      
Averages and records for this station are not official NWS values.
T = Trace of Precipitation, MM = Missing Value Source: Averaged Metar Reports

Daily Weather History Graph

Daily Weather History Graph

Search for Another Location

Airport or City:

Astronomy

Aug. 24, 2019 Rise Set
Actual Time 6:55 AM EDT 8:25 PM EDT
Civil Twilight 6:26 AM EDT 8:54 PM EDT
Nautical Twilight 5:50 AM EDT 9:29 PM EDT
Astronomical Twilight 5:13 AM EDT 10:06 PM EDT
Moon 12:46 AM EDT (8/24) 3:42 PM EDT (8/24)
Length of Visible Light 14h 28m
Length of Day
13h 29m
Last Quarter, 39% of the Moon is Illuminated
Aug 24
Last Quarter
Aug 30
New
Sep 5
First Quarter
Sep 14
Full
Sep 21
Last Quarter

Hourly Weather History & Observations

Time (EDT) Temp. Dew Point Humidity Pressure Visibility Wind Dir Wind Speed Gust Speed Precip Events Conditions
12:15 AM 54.0 °F 50.9 °F 89% 30.25 in 10.0 mi ENE 4.6 mph - N/A   Clear
12:16 AM 54.0 °F 50.9 °F 89% 30.25 in 10.0 mi ENE 4.6 mph - N/A   Clear
12:35 AM 54.1 °F 51.1 °F 89% 30.26 in 10.0 mi ENE 5.8 mph - N/A   Clear
12:36 AM 54.3 °F 51.3 °F 89% 30.26 in 10.0 mi ENE 5.8 mph - N/A   Clear
12:59 AM 56.3 °F 51.4 °F 84% 30.26 in 10.0 mi ENE 6.9 mph - N/A   Clear
1:17 AM 54.9 °F 50.2 °F 84% 30.26 in 10.0 mi ENE 4.6 mph - N/A   Clear
1:35 AM 53.2 °F 49.5 °F 87% 30.27 in 10.0 mi ENE 4.6 mph - N/A   Clear
1:55 AM 52.9 °F 48.9 °F 86% 30.27 in 10.0 mi ENE 5.8 mph - N/A   Clear
1:56 AM 52.7 °F 48.9 °F 87% 30.27 in 10.0 mi ENE 5.8 mph - N/A   Clear
2:15 AM 53.4 °F 48.9 °F 85% 30.26 in 10.0 mi ENE 4.6 mph - N/A   Clear
2:20 AM 52.9 °F 48.6 °F 85% 30.26 in 10.0 mi ENE 4.6 mph - N/A   Clear
2:38 AM 52.2 °F 48.2 °F 86% 30.26 in 10.0 mi ENE 3.5 mph - N/A   Clear
2:56 AM 51.8 °F 48.0 °F 87% 30.26 in 10.0 mi NE 4.6 mph - N/A   Clear
3:15 AM 51.4 °F 48.2 °F 89% 30.26 in 10.0 mi ENE 3.5 mph - N/A   Clear
3:16 AM 51.4 °F 48.2 °F 89% 30.26 in 10.0 mi ENE 3.5 mph - N/A   Clear
3:35 AM 51.6 °F 48.4 °F 89% 30.26 in 10.0 mi ENE 3.5 mph - N/A   Clear
4:17 AM 49.1 °F 47.3 °F 93% 30.27 in 10.0 mi NE 3.5 mph - N/A   Clear
4:35 AM 47.3 °F 45.9 °F 95% 30.28 in 10.0 mi NE 3.5 mph - N/A   Clear
4:36 AM 47.5 °F 45.9 °F 94% 30.28 in 10.0 mi NE 3.5 mph - N/A   Clear
4:55 AM 47.3 °F 45.9 °F 95% 30.28 in 10.0 mi NE 3.5 mph - N/A   Clear
5:15 AM 46.9 °F 45.5 °F 95% 30.28 in 10.0 mi NE 3.5 mph - N/A   Clear
5:38 AM 47.7 °F 46.4 °F 95% 30.29 in 10.0 mi NE 4.6 mph - N/A   Clear
5:56 AM 49.8 °F 47.7 °F 92% 30.29 in 10.0 mi NE 3.5 mph - N/A   Clear
6:15 AM 49.3 °F 47.1 °F 92% 30.30 in 10.0 mi NE 4.6 mph - N/A   Clear
6:35 AM 48.2 °F 46.0 °F 92% 30.30 in 10.0 mi ENE 4.6 mph - N/A   Clear
6:59 AM 48.9 °F 46.9 °F 93% 30.31 in 10.0 mi NE 3.5 mph - N/A   Clear
7:17 AM 50.4 °F 48.2 °F 92% 30.31 in 10.0 mi NE 6.9 mph - N/A   Clear
7:35 AM 51.8 °F 49.1 °F 90% 30.31 in 10.0 mi NE 5.8 mph - N/A   Clear
7:55 AM 53.1 °F 50.2 °F 90% 30.31 in 10.0 mi NE 5.8 mph - N/A   Clear
8:15 AM 55.0 °F 50.9 °F 86% 30.32 in 10.0 mi NE 6.9 mph - N/A   Clear
8:20 AM 55.6 °F 51.3 °F 85% 30.32 in 10.0 mi NE 6.9 mph - N/A   Clear
8:38 AM 57.0 °F 52.0 °F 83% 30.31 in 10.0 mi NE 5.8 mph - N/A   Clear
8:56 AM 58.3 °F 52.3 °F 81% 30.31 in 10.0 mi NE 8.1 mph - N/A   Clear
9:15 AM 59.4 °F 52.9 °F 79% 30.31 in 10.0 mi NNE 4.6 mph - N/A   Clear
9:35 AM 60.8 °F 52.5 °F 74% 30.31 in 10.0 mi NE 5.8 mph - N/A   Clear
9:59 AM 62.6 °F 51.1 °F 66% 30.31 in 10.0 mi ENE 6.9 mph - N/A   Clear
10:17 AM 63.5 °F 50.9 °F 63% 30.31 in 10.0 mi NE 10.4 mph - N/A   Clear
10:36 AM 63.7 °F 51.6 °F 65% 30.31 in 10.0 mi ENE 10.4 mph - N/A   Clear
10:55 AM 64.6 °F 50.7 °F 61% 30.31 in 10.0 mi ENE 11.5 mph 18.4 mph N/A   Scattered Clouds
11:15 AM 64.2 °F 50.0 °F 60% 30.31 in 10.0 mi NE 11.5 mph - N/A   Scattered Clouds
11:38 AM 64.9 °F 49.8 °F 58% 30.31 in 10.0 mi ENE 11.5 mph 17.3 mph N/A   Scattered Clouds
11:56 AM 64.6 °F 49.5 °F 58% 30.31 in 10.0 mi ENE 8.1 mph 11.5 mph N/A   Mostly Cloudy
12:15 PM 66.2 °F 50.5 °F 57% 30.30 in 10.0 mi NNE 9.2 mph - N/A   Mostly Cloudy
12:35 PM 67.3 °F 51.1 °F 56% 30.30 in 10.0 mi NE 11.5 mph 17.3 mph N/A   Scattered Clouds
12:59 PM 68.5 °F 50.5 °F 53% 30.30 in 10.0 mi ENE 10.4 mph 16.1 mph N/A   Scattered Clouds
1:35 PM 68.4 °F 50.2 °F 52% 30.29 in 10.0 mi NE 12.7 mph 16.1 mph N/A   Scattered Clouds
1:36 PM 68.5 °F 50.4 °F 52% 30.29 in 10.0 mi ENE 10.4 mph 16.1 mph N/A   Scattered Clouds
1:55 PM 68.9 °F 50.0 °F 51% 30.28 in 10.0 mi East 5.8 mph 17.3 mph N/A   Scattered Clouds
2:15 PM 70.0 °F 51.1 °F 51% 30.28 in 10.0 mi East 5.8 mph - N/A   Scattered Clouds
2:38 PM 68.5 °F 50.0 °F 52% 30.28 in 10.0 mi East 9.2 mph - N/A   Scattered Clouds
2:56 PM 70.5 °F 49.6 °F 47% 30.28 in 10.0 mi ENE 8.1 mph - N/A   Scattered Clouds
3:15 PM 70.2 °F 49.3 °F 47% 30.27 in 10.0 mi East 8.1 mph 16.1 mph N/A   Scattered Clouds
3:16 PM 70.2 °F 49.5 °F 48% 30.27 in 10.0 mi East 8.1 mph 16.1 mph N/A   Scattered Clouds
3:35 PM 70.5 °F 49.6 °F 47% 30.26 in 10.0 mi ENE 6.9 mph 16.1 mph N/A   Scattered Clouds
3:59 PM 70.9 °F 49.8 °F 47% 30.26 in 10.0 mi East 8.1 mph - N/A   Clear
4:17 PM 70.9 °F 50.4 °F 48% 30.25 in 10.0 mi ENE 9.2 mph - N/A   Scattered Clouds
4:35 PM 70.9 °F 50.2 °F 48% 30.25 in 10.0 mi East 8.1 mph - N/A   Clear
4:36 PM 71.1 °F 50.4 °F 48% 30.25 in 10.0 mi ESE 8.1 mph - N/A   Clear
4:55 PM 70.9 °F 50.7 °F 49% 30.24 in 10.0 mi ENE 11.5 mph - N/A   Clear
4:56 PM 70.9 °F 50.9 °F 49% 30.24 in 10.0 mi ENE 10.4 mph - N/A   Clear
5:15 PM 70.3 °F 49.6 °F 48% 30.23 in 10.0 mi East 3.5 mph - N/A   Clear
5:38 PM 70.7 °F 49.6 °F 47% 30.23 in 10.0 mi ENE 9.2 mph - N/A   Clear
5:56 PM 70.3 °F 49.8 °F 48% 30.23 in 10.0 mi East 9.2 mph - N/A   Clear
6:15 PM 70.0 °F 50.2 °F 49% 30.23 in 10.0 mi East 6.9 mph - N/A   Clear
6:16 PM 70.0 °F 50.4 °F 50% 30.23 in 10.0 mi East 5.8 mph - N/A   Clear
6:35 PM 69.8 °F 49.8 °F 49% 30.24 in 10.0 mi ENE 8.1 mph - N/A   Clear
6:36 PM 69.8 °F 49.6 °F 49% 30.23 in 10.0 mi East 5.8 mph - N/A   Clear
6:59 PM 69.3 °F 50.9 °F 52% 30.24 in 10.0 mi East 8.1 mph - N/A   Mostly Cloudy
7:17 PM 66.6 °F 51.3 °F 58% 30.23 in 10.0 mi East 4.6 mph - N/A   Mostly Cloudy
7:35 PM 65.7 °F 51.3 °F 60% 30.23 in 10.0 mi ESE 5.8 mph - N/A   Scattered Clouds
7:55 PM 64.8 °F 50.7 °F 60% 30.24 in 10.0 mi East 5.8 mph - N/A   Mostly Cloudy
7:56 PM 64.4 °F 50.9 °F 62% 30.24 in 10.0 mi East 5.8 mph - N/A   Mostly Cloudy
8:15 PM 63.1 °F 50.5 °F 63% 30.24 in 10.0 mi East 4.6 mph - N/A   Scattered Clouds
8:20 PM 62.8 °F 50.4 °F 64% 30.24 in 10.0 mi East 5.8 mph - N/A   Scattered Clouds
8:37 PM 61.3 °F 50.2 °F 67% 30.25 in 10.0 mi East 4.6 mph - N/A   Clear
8:56 PM 60.3 °F 50.2 °F 69% 30.25 in 10.0 mi East 3.5 mph - N/A   Clear
9:15 PM 56.5 °F 50.4 °F 80% 30.25 in 10.0 mi Calm Calm - N/A   Clear
9:16 PM 56.5 °F 50.4 °F 80% 30.25 in 10.0 mi Calm Calm - N/A   Clear
9:35 PM 56.5 °F 50.4 °F 80% 30.26 in 10.0 mi ESE 3.5 mph - N/A   Clear
9:36 PM 56.8 °F 50.5 °F 79% 30.26 in 10.0 mi ESE 3.5 mph - N/A   Clear
9:59 PM 56.7 °F 50.4 °F 79% 30.26 in 10.0 mi East 3.5 mph - N/A   Clear
10:17 PM 54.5 °F 50.2 °F 85% 30.26 in 10.0 mi Calm Calm - N/A   Clear
10:35 PM 54.9 °F 50.7 °F 86% 30.26 in 10.0 mi East 3.5 mph - N/A   Clear
10:55 PM 52.7 °F 50.0 °F 91% 30.26 in 10.0 mi East 4.6 mph - N/A   Clear
10:56 PM 52.5 °F 50.0 °F 91% 30.26 in 10.0 mi East 4.6 mph - N/A   Clear
11:15 PM 54.5 °F 50.9 °F 88% 30.26 in 10.0 mi East 3.5 mph - N/A   Clear
11:20 PM 55.0 °F 51.3 °F 87% 30.25 in 10.0 mi East 3.5 mph - N/A   Clear
11:38 PM 54.7 °F 50.9 °F 87% 30.26 in 10.0 mi East 3.5 mph - N/A   Clear
11:56 PM 54.9 °F 51.1 °F 87% 30.26 in 10.0 mi ENE 3.5 mph - N/A   Clear